Location: Plymouth
(43.7570°N, 71.6890°W)
Time: 22:35:04
(UTC-04:00)

Daily predictions for brighter satellites

Satellite Brightness Start Highest point End
(mag) Time Altitude Azimuth Time Altitude Azimuth Time Altitude Azimuth
ATLAS 3B R/B 4.3 20:57:58 10° NNW 21:03:46 25° NNE 21:09:16 10° E
ERS-1 Rocket 3.3 21:02:35 10° S 21:07:36 73° WSW 21:12:40 10° NNW
ALOS 4.0 21:03:30 10° SSW 21:07:41 32° W 21:11:54 10° NNW
Cosmos 1300 3.4 21:07:01 10° N 21:10:39 38° ENE 21:14:14 10° SSE
Envisat 3.0 21:06:58 10° SSE 21:12:02 76° ENE 21:17:08 10° N
ERBS 4.0 21:11:04 10° SSE 21:13:12 15° SE 21:15:21 10° E
Tiangong 1 1.6 21:12:51 10° SW 21:15:46 37° SSE 21:18:40 10° E
MetOp-A 4.4 21:10:54 10° SSE 21:16:05 54° ENE 21:21:18 10° N
CZ-4 SHROUD 3.6 21:13:08 10° SSE 21:16:09 47° ENE 21:19:12 10° N
SL-16 R/B 4.3 21:13:26 10° N 21:16:42 15° NE 21:19:59 10° E
NOSS 3-1 (C) 3.5 21:12:20 10° SSW 21:18:05 60° ESE 21:24:28 10° NE
Nadezhda 2 Rocket 4.5 21:12:35 10° S 21:18:38 68° E 21:24:41 10° NNE
Cosmos 2333 Rocket 3.3 21:14:56 10° N 21:20:10 34° NE 21:25:21 10° ESE
Lacrosse 4 Rocket 3.9 21:20:47 10° NNE 21:22:46 13° NE 21:24:46 10° ENE
Cosmos 2151 3.1 21:19:09 10° S 21:23:22 82° W 21:27:35 10° N
Delta 2 Rocket 4.4 21:23:03 10° WSW 21:25:56 21° S 21:28:16 12° SE
ARGOS 3.8 21:22:07 10° SE 21:27:07 41° ENE 21:32:08 10° N
Cosmos 2112 Rocket 4.5 21:22:16 10° NNW 21:27:27 62° WSW 21:32:38 10° S
Cosmos 2058 2.9 21:23:53 10° S 21:27:56 67° E 21:32:02 10° NNE
COSMOS 2455 4.4 21:23:57 10° NNW 21:28:48 24° NE 21:33:38 10° E
Cosmos 2297 Rocket 3.7 21:26:15 10° SE 21:29:43 17° E 21:33:15 10° ENE
Cosmos 1937 Rocket 4.1 21:25:36 10° SSE 21:30:20 36° ESE 21:35:04 10° NE
Cosmos 2219 Rocket 2.6 21:26:45 10° NNW 21:32:13 51° ENE 21:37:10 12° SE
COSMOS 2428 2.8 21:26:32 10° NNW 21:32:14 85° WSW 21:37:56 10° SSE
Cosmos 1455 4.1 21:30:10 10° NNE 21:32:45 17° ENE 21:35:05 11° ESE
Nimbus 7 Rocket 4.4 21:27:00 10° NNE 21:32:54 88° ESE 21:38:47 10° SSW
deb Chang Zheng 4 4.3 21:32:00 10° N 21:36:16 57° WNW 21:40:30 10° SSW
Cosmos 1726 2.2 21:36:59 10° N 21:40:46 69° E 21:44:08 13° SSE
Cosmos 2298 Rocket 4.0 21:36:16 10° SSW 21:41:34 74° ESE 21:46:54 10° NNE
Sich 1 3.1 21:41:05 10° S 21:45:27 63° E 21:49:49 10° NNE
PSLV R/B 3.8 21:44:58 10° S 21:47:59 53° W 21:50:58 10° NNW
Cosmos 1939 Rocket 4.4 21:45:28 10° SSW 21:49:00 32° W 21:52:31 10° NNW
CZ-4B R/B 3.6 21:44:04 10° NNE 21:49:19 63° ESE 21:54:25 10° S
Cosmos 2242 Rocket 3.7 21:46:20 10° N 21:50:48 65° E 21:54:27 15° SSE
Cosmos 1633 Rocket 3.0 21:47:30 10° S 21:51:51 70° E 21:56:13 10° NNE
Meteor 1-4 Rocket 2.6 21:50:26 10° N 21:54:11 72° E 21:56:51 18° SSE
Cosmos 1980 4.0 21:49:13 10° NNW 21:54:47 56° ENE 21:59:03 17° SE
SPOT 5 3.5 21:51:58 10° S 21:56:28 52° W 22:01:15 10° NNW
USA 245 1.9 21:59:33 25° S 22:00:46 81° WSW 22:03:01 10° NNW
Cosmos 2219 4.2 21:58:09 10° SW 22:03:43 51° WNW 22:09:20 10° NNE
Cosmos 292 Rocket 3.8 21:59:42 10° NNW 22:04:29 80° WSW 22:08:03 18° SSE
Cosmos 2237 Rocket 2.4 22:01:09 10° NNW 22:06:50 64° ENE 22:10:50 20° SE
Cosmos 1869 4.2 22:03:33 10° N 22:07:17 34° ENE 22:09:16 22° SE
IGS 5A 4.5 22:07:11 19° ESE 22:09:27 33° ENE 22:13:12 10° N
H-2A R/B 2.6 22:05:52 19° SE 22:09:33 49° ENE 22:14:48 10° N
Cosmos 2082 3.8 22:08:14 10° S 22:13:47 54° ESE 22:19:21 10° NNE
Cosmos 1271 Rocket 2.9 22:10:31 10° NNW 22:14:21 69° W 22:17:01 19° S
DELTA 2 R/B(2) 4.5 22:13:24 10° WSW 22:14:48 30° SSW 22:14:48 30° SSW
Cosmos 2360 Rocket 4.4 22:12:12 10° WNW 22:15:55 18° W 22:19:38 10° SW
Cosmos 1898 Rocket 3.9 22:11:19 10° SSW 22:16:27 65° WNW 22:21:40 10° NNE
DELTA 2 DEB (DPAF) 4.2 22:14:15 22° SSE 22:17:06 72° ENE 22:21:35 10° N
Landsat 7 3.9 22:14:43 22° SSE 22:17:47 69° ENE 22:22:32 10° N
Cosmos 220 Rocket 4.1 22:15:01 10° SSW 22:19:24 81° WNW 22:23:53 10° NNE
CZ-4C R/B 2.9 22:18:51 29° SSE 22:20:31 74° ENE 22:24:00 10° N
Iridium 2 3.6 22:19:28 20° S 22:22:01 89° E 22:25:54 10° N
SPOT 1/Viking Rocket 4.0 22:17:51 14° S 22:22:09 57° W 22:27:16 10° NNW
NOAA 11 4.3 22:18:02 17° S 22:22:17 74° WSW 22:27:46 10° NNW
Cosmos 1125 Rocket 4.3 22:20:15 23° SE 22:22:34 32° E 22:27:16 10° NE
NOSS 3-1 (A) 3.8 22:17:19 10° SW 22:23:13 68° NW 22:29:52 10° NNE
Cosmos 1626 2.3 22:21:48 28° SSE 22:23:31 55° E 22:27:13 10° NNE
Cosmos 1346 3.0 22:22:51 35° S 22:23:56 68° E 22:26:58 10° NNE
Cosmos 1703 3.6 22:23:38 14° SSW 22:26:56 66° W 22:30:50 10° N
YAOGAN 6 4.4 22:27:34 11° SSW 22:30:27 27° W 22:33:34 10° NW
OTV 4 2.9 22:29:22 10° SW 22:29:40 12° SW 22:29:40 12° SW
Cosmos 1241 Rocket 4.4 22:26:41 10° SSW 22:32:51 82° ESE 22:39:09 10° NE
Terra 1.9 22:31:05 27° SSE 22:33:38 70° ENE 22:38:23 10° N
SL-08 RB Rocket 4.2 22:32:55 20° S 22:35:50 55° W 22:40:17 10° NNW
Nadezhda 1 Rocket 4.1 22:37:04 10° NNW 22:43:10 74° W 22:47:24 21° S
Spot 4 3.9 22:42:22 30° SSE 22:44:43 70° ENE 22:49:34 10° N
ATLAS 2AS CENTAUR R/B 2.9 22:37:55 10° SSW 22:45:24 76° ESE 22:53:28 10° NE
Cosmos 1470 Rocket 3.9 22:42:22 18° SSW 22:45:30 62° W 22:49:48 10° N
Cosmos 2227 Rocket 2.3 22:40:46 10° SSW 22:46:25 81° WNW 22:52:08 10° NNE
Cosmos 1933 Rocket 3.9 22:43:16 18° SSW 22:46:31 64° W 22:50:58 10° N
Cosmos 1703 Rocket 4.0 22:44:59 10° N 22:49:14 48° ENE 22:50:40 34° SE
ERBS 3.0 22:46:15 10° WSW 22:49:42 57° NW 22:53:08 10° NE
SAR-Lupe-2 3.4 22:49:41 46° SSE 22:50:41 88° ENE 22:54:18 10° NNW
Cosmos 1900 4.3 22:45:47 10° NNW 22:50:48 81° ENE 22:52:57 34° SE
Tiangong 1 0.8 22:49:06 10° W 22:52:12 75° S 22:52:17 74° SSE
OAO 2 Rocket 4.1 22:48:30 10° WSW 22:53:12 32° S 22:53:39 32° S
ATLAS 3B R/B 2.7 22:48:30 10° NW 22:55:36 82° NE 22:59:21 29° SE
SL-16 R/B 2.2 22:56:06 10° NNW 23:01:49 78° ENE 23:04:25 34° SE
Lacrosse 4 Rocket 1.5 22:57:47 10° NNW 23:02:14 79° ENE 23:03:42 42° SE
DMSP B5D2-2 4.1 22:58:19 10° NNE 23:03:35 83° WNW 23:06:47 24° SSW
Cosmos 2333 Rocket 3.1 22:59:10 10° NW 23:04:30 40° WSW 23:07:32 23° SSW
Cosmos 1709 Rocket 3.9 23:02:51 28° S 23:06:20 82° E 23:12:28 10° N
BREEZE-M TANK 3.8 22:48:45 10° WSW 23:07:17 86° SSE 23:11:20 10° ENE
Cosmos 2221 Rocket 3.6 23:03:22 10° N 23:07:57 74° E 23:09:20 44° SSE
Cosmos 1455 3.5 23:05:08 10° NNW 23:08:35 33° W 23:10:08 24° SW
Aureole 2 Rocket 3.7 23:06:38 10° N 23:09:26 27° ENE 23:09:45 26° ENE
USA 238 DEB 4.2 23:03:14 10° NNW 23:10:10 56° NE 23:14:41 22° ESE
USA 238 4.2 23:03:20 10° NNW 23:10:16 55° NE 23:14:48 22° ESE
Cosmos 2297 Rocket 2.4 23:07:58 13° SSW 23:13:06 71° WNW 23:18:47 10° NNE
COS B Rocket 3.5 23:09:53 10° N 23:13:47 60° E 23:14:33 50° SE
Cosmos 1933 3.3 23:10:22 10° N 23:14:27 80° W 23:15:26 50° S
COSMOS 2455 2.9 23:09:19 10° NW 23:15:21 74° WSW 23:17:55 36° SSE
Cosmos 2219 Rocket 3.8 23:11:23 10° NW 23:15:48 24° WSW 23:18:54 15° SW
NOSS 2-3 (E) 3.9 23:18:13 39° S 23:19:55 62° ESE 23:25:30 10° NE
Cosmos 1340 Rocket 4.2 23:29:25 25° E 23:29:25 25° E 23:32:24 10° NE
Cosmos 1603 4.0 23:30:21 10° NNW 23:35:59 59° ENE 23:38:14 35° SE
Cosmos 2181 Rocket 4.3 23:30:26 10° NNW 23:36:45 64° W 23:39:48 32° SSW
Cosmos 2251 Rocket 3.8 23:32:06 10° NNW 23:37:23 58° ENE 23:39:06 39° SE
H-2A R/B 3.5 23:38:21 10° NNE 23:42:10 32° E 23:42:10 32° E
CZ-4C R/B 3.5 23:36:18 10° NNW 23:43:03 51° NE 23:48:28 19° ESE
SeaSat 1 2.6 23:43:30 43° SE 23:45:02 68° ENE 23:49:57 10° NNW
Cosmos 2184 Rocket 3.9 23:43:46 41° SSE 23:46:03 72° E 23:52:12 10° NNE
NOSS 2-3 (C) 4.0 23:44:46 31° SW 23:47:16 84° NW 23:53:05 10° NE
H-2A R/B 3.8 23:46:30 16° SW 23:49:13 24° W 23:53:31 10° NW
ASTEX 1 3.8 23:45:19 10° NNE 23:50:00 45° E 23:50:45 41° ESE
Cosmos 2237 Rocket 4.0 23:46:22 10° NW 23:50:20 20° W 23:52:39 15° SW
Meteor 1-26 Rocket 4.4 23:45:43 10° NNW 23:51:17 64° W 23:53:14 40° SSW
FALCON 9 R/B 3.4 23:36:13 10° W 23:52:22 40° SSW 23:54:02 36° S
Cosmos 1733 Rocket 3.5 23:53:33 46° ESE 23:53:51 47° E 23:58:08 10° NNE
Cosmos 1869 Rocket 4.4 23:53:42 33° SW 23:55:09 45° WNW 23:59:28 10° N
